Notices

What's New in latest Release from April 7th, 2021:

- Updated Glossary, including Speed of Maximum Gust, and Total Hourly Precipitation

- Updated national and regional climate services offices contacts and prices information

- Addition of station inventory lists for 1981-2010, 1971-2000, and 1961-1990 Normals.

If you haven't already, please take our survey and provide feedback about our website: https://eccc.sondage-survey.ca/f/LanguageSelection.aspx?s=442ca660-fcf1-47c0-95a9-59707d6fd709

Hourly Data Report for December 28, 2020

FORT GOOD HOPE CS
NORTHWEST TERRITORIES
Current Station Operator: ECCC - MSC

66°14'32.044" N
128°38'39.081" W
81.70 m
2201450
71491
ZGH

Download Data

Hourly Data (December 2020)
Hourly Data Report for December 28, 2020
TIME
LST
Temp Definition
°C
Dew Point Definition
°C
Rel Hum Definition
%
Precip. Amount Definition
mm

Wind Dir Definition
10's deg

Wind Spd Definition
km/h
Visibility Definition
km
Stn Press Definition
kPa
Hmdx Definition


Wind Chill Definition


Weather Definition


00:00 -22.6 -25.3 79 0.0 33 1   100.03   -24 LegendNANA
01:00 -25.1 -27.9 77 0.0 35 3   100.08   -28 LegendNANA
02:00 -24.6 -27.4 78 0.0 7 4   100.08   -29 LegendNANA
03:00 -25.5 -28.4 77 0.0 8 3   100.10   -29 LegendNANA
04:00 -27.1 -30.1 75 0.0 7 2   100.12   -29 LegendNANA
05:00 -28.5 -31.6 75 0.0 9 1   100.12   -30 LegendNANA
06:00 -27.8 -30.9 75 0.0 9 3   100.10   -31 LegendNANA
07:00 -27.7 -30.7 75 0.0 6 4   100.08   -32 LegendNANA
08:00 -28.4 -31.5 75 0.0 9 4   100.06   -33 LegendNANA
09:00 -28.8 -31.9 74 0.0 9 4   100.04   -33 LegendNANA
10:00 -28.7 -31.8 74 0.0 8 3   100.03   -32 LegendNANA
11:00 -29.2 -32.4 74 0.0 10 2   100.02   -31 LegendNANA
12:00 -29.0 -32.1 74 0.0 10 3   100.00   -32 LegendNANA
13:00 -28.1 -31.2 75 0.0 10 4   99.95   -32 LegendNANA
14:00 -26.9 -29.9 76 0.0 11 3   99.93   -30 LegendNANA
15:00 -25.3 -28.2 77 0.0 10 2   99.94   -27 LegendNANA
16:00 -24.4 -27.3 77 0.0 8 3   99.89   -27 LegendNANA
17:00 -23.2 -25.9 78 0.0 1 2   99.93   -25 LegendNANA
18:00 -22.0 -24.6 79 0.0 9 5   99.87   -27 LegendNANA
19:00 -21.3 -23.8 80 0.0 4 2   99.90   -23 LegendNANA
20:00 -20.6 -23.1 80 0.0 5 4   99.91   -24 LegendNANA
21:00 -20.0 -22.5 81 0.0 3 3   99.88   -23 LegendNANA
22:00 -19.8 -22.2 81 0.0 4 3   99.86   -22 LegendNANA
23:00 -19.9 -22.3 81 0.0 35 2   99.87   -22 LegendNANA

Notes on Data Quality.

Legend

  • E = Estimated
  • M = Missing
  • NA = Not Available*
  • [empty] = Indicates an unobserved value
Date modified: